Volver al catálogo

STARLINK-32045

ActivoComunicacionesVLEO
NORAD 60106·PAYLOAD·🇺🇸 United States

Lanzado Jun 23, 2024 desde Cape Canaveral Space Force Station

Loading…

Próximos Pases (próximas 24 horas)

TLE

ActualizadoSource: CelesTrak SupGP

Época: Sep 14, 2026, 21:11 UTC

1 60106C 24117R   26257.88312500  .00043733  00000+0  12921-2 0  2570
2 60106  53.1571 235.6813 0001351  97.7498 142.1166 15.34369125    10

Sigue STARLINK-32045 en tiempo real con AllMySat

Download on the App Store